User: anonymous   Login
Location: Pleiades Observatory
(40.1297°N, 91.5238°W)
Time: 21:46:14
(UTC-05:00)
Language:

Cosmos 1842 Rocket - Orbit

View from above orbital plane
View from above orbital plane
View from above satellite
View from above satellite

Ground track
Ground track

The orbit data is extracted from the following two-line orbital elements,

1 17912U 87038B   16146.84614817  .00000129  00000-0  12858-4 0  9993
2 17912  82.5039  53.7735 0021786  67.7800 292.5723 14.82866684570321
Epoch (UTC): 25 May 2016 20:18:27
Eccentricity: 0.0021786
inclination: 82.5039°
perigee height: 605 km
apogee height: 635 km
right ascension of ascending node: 53.7735°
argument of perigee: 67.7800°
revolutions per day: 14.82866684
mean anomaly at epoch: 292.5723°
orbit number at epoch: 57032

The dashed part of the orbit path shows where the satellite is in the earth's shadow,  

DLR